Concord, CA

1:08 AM PST on January 19, 2017 (GMT -0800)
Buchanan

Weather History for KCCR - January, 2014

Change the Weather History Date:

Saturday, January 18, 2014

  Actual Average Record
Temperature  
Mean Temperature 51 °F 48 °F  
Max Temperature 69 °F 56 °F 69 °F (2014)
Min Temperature 33 °F 40 °F 28 °F (2013)
Degree Days  
Heating Degree Days 14    
Month to date heating degree days 257  
Since 1 July heating degree days 1285  
Cooling Degree Days 0    
Month to date cooling degree days 0  
Year to date cooling degree days 0  
Growing Degree Days 1 (Base 50)    
Moisture  
Dew Point 30 °F    
Average Humidity 55    
Maximum Humidity 89    
Minimum Humidity 20    
Precipitation  
Precipitation 0.00 in - 0.51 in (1993)
Month to date precipitation 0.00  
Year to date precipitation 0.00  
Since 1 July precipitation 2.48  
Sea Level Pressure  
Sea Level Pressure 30.09 in    
Wind  
Wind Speed 3 mph (NE)    
Max Wind Speed 10 mph    
Max Gust Speed 25 mph    
Visibility 9 miles    
Events      
T = Trace of Precipitation, MM = Missing Value Source: NWS Daily Summary

Daily Weather History Graph

Daily Weather History Graph

Search for Another Location

Airport or City:

Trip Planner

Search our weather history database for the weather conditions in past years. The results will help you decide how hot, cold, wet, or windy it might be!

Date:

Astronomy

Jan. 18, 2014 Rise Set
Actual Time 7:21 AM PST 5:16 PM PST
Civil Twilight 6:53 AM PST 5:44 PM PST
Nautical Twilight 6:20 AM PST 6:16 PM PST
Astronomical Twilight 5:49 AM PST 6:48 PM PST
Moon 7:59 PM PST (1/18) 8:27 AM PST (1/18)
Length of Visible Light 10h 51m
Length of Day
9h 54m
Waning Gibbous, 94% of the Moon is Illuminated
Jan 18
Waning Gibbous
Jan 23
Last Quarter
Jan 30
New
Feb 6
First Quarter
Feb 14
Full

Hourly Weather History & Observations

Time (PST) Temp. Windchill Dew Point Humidity Pressure Visibility Wind Dir Wind Speed Gust Speed Precip Events Conditions
12:53 AM 39.9 °F 37.8 °F 33.1 °F 77% 30.09 in 7.0 mi South 3.5 mph - N/A   Clear
1:53 AM 41.0 °F 39.0 °F 33.1 °F 73% 30.10 in 8.0 mi SE 3.5 mph - N/A   Clear
2:53 AM 37.0 °F - 30.9 °F 79% 30.10 in 8.0 mi Calm Calm - N/A   Clear
3:53 AM 35.1 °F - 30.0 °F 82% 30.10 in 8.0 mi Calm Calm - N/A   Clear
4:53 AM 35.1 °F - 30.0 °F 82% 30.11 in 8.0 mi Calm Calm - N/A   Clear
5:53 AM 35.1 °F 32.2 °F 30.0 °F 82% 30.11 in 8.0 mi SSE 3.5 mph - N/A   Clear
6:53 AM 33.1 °F - 28.9 °F 85% 30.12 in 7.0 mi Calm Calm - N/A   Haze
7:53 AM 34.0 °F - 30.0 °F 85% 30.13 in 7.0 mi Calm Calm - N/A   Haze
8:53 AM 41.0 °F - 32.0 °F 70% 30.14 in 8.0 mi Calm Calm - N/A   Clear
9:53 AM 48.9 °F - 35.1 °F 59% 30.16 in 8.0 mi Calm Calm - N/A   Clear
10:53 AM 60.1 °F - 28.0 °F 30% 30.15 in 10.0 mi North 4.6 mph - N/A   Clear
11:53 AM 62.1 °F - 28.9 °F 29% 30.13 in 10.0 mi North 5.8 mph - N/A   Clear
12:53 PM 64.9 °F - 28.9 °F 26% 30.09 in 10.0 mi NNE 5.8 mph - N/A   Clear
1:53 PM 66.9 °F - 27.0 °F 22% 30.06 in 10.0 mi North 9.2 mph - N/A   Clear
2:53 PM 69.1 °F - 27.0 °F 21% 30.05 in 10.0 mi North 5.8 mph - N/A   Clear
3:53 PM 69.1 °F - 28.9 °F 22% 30.04 in 10.0 mi NE 8.1 mph - N/A   Clear
4:53 PM 66.0 °F - 30.0 °F 26% 30.04 in 10.0 mi ENE 4.6 mph - N/A   Clear
5:53 PM 57.0 °F - 30.0 °F 36% 30.04 in 8.0 mi Calm Calm - N/A   Clear
6:53 PM 51.1 °F - 30.9 °F 46% 30.04 in 10.0 mi North - - N/A   Clear
7:53 PM 46.0 °F - 30.9 °F 56% 30.04 in 10.0 mi North - - N/A   Clear
8:53 PM 44.1 °F - 30.9 °F 60% 30.05 in 10.0 mi Calm Calm - N/A   Clear
9:53 PM 43.0 °F - 30.9 °F 62% 30.06 in 9.0 mi Calm Calm - N/A   Clear
10:53 PM 41.0 °F - 30.9 °F 67% 30.07 in 10.0 mi Calm Calm - N/A   Clear
11:53 PM 39.9 °F - 30.9 °F 70% 30.06 in 10.0 mi Calm Calm - N/A   Clear